Location: *
(49.4547°N, 7.9131°E)
Time: 07:27:38
(UTC+00:00)

Cosmos 2151 Rocket - Pass Details

Date: 22 September 2019
Orbit: 618 x 642 km, 82.5° (Epoch: 18 October)

Event Time Altitude Azimuth Distance (km) Brightness Sun altitude
Rises 17:58:54 0° 196° (SSW) 2,886 7.1 -6.0°
Reaches altitude 10° 18:01:08 10° 199° (SSW) 1,983 6.3 -6.3°
Maximum altitude 18:05:30 65° 282° (WNW) 686 4.1 -7.0°
Drops below altitude 10° 18:09:54 10° 5° (N) 1,996 6.2 -7.7°
Sets 18:12:09 0° 8° (N) 2,907 7.0 -8.1°
